QPF
0.04 0.03 0.05 0.02 0.04 0.08 0.09 0.08 0.07 0.06 0.05 0.04 0.02 0.00 0.00 0.00 0.00 0.00 0.00 0.00 0.00 0.00
0.01 0.01 0.01 0.00 0.00 0.01 0.02 0.03 0.04 0.03 0.02 0.00 0.00 0.00 0.00 0.00 0.00 0.00 0.00 0.00 0.00 0.00
0.00 0.00 0.00 0.00 0.00 0.00 0.00 0.01 0.02 0.02 0.01 0.00 0.00 0.00 0.00 0.00 0.00 0.00 0.00 0.00 0.00 0.00
0.00 0.00 0.00 0.00 0.00 0.00 0.00 0.00 0.00 0.00 0.00 0.00 0.00 0.00 0.00 0.00 0.00 0.00 0.00 0.00 0.00 0.00
0.00 0.00 0.00 0.00 0.00 0.00 0.00 0.00 0.00 0.00 0.00 0.00 0.00 0.00 0.00 0.00 0.00 0.00 0.00 0.00 0.00 0.00
0.00 0.00 0.00 0.00 0.00 0.00 0.00 0.00 0.00 0.00 0.00 0.00 0.00 0.00 0.00 0.00 0.00 0.00 0.00 0.00 0.00 0.00
0.00 0.00 0.00 0.00 0.00 0.00 0.00 0.00 0.00 0.00 0.00 0.00 0.00 0.00 0.00 0.00 0.00 0.00 0.00 0.00 0.00 0.00
0.00 0.00 0.00 0.00 0.00 0.00 0.00 0.00 0.00 0.00 0.00 0.00 0.00 0.00 0.00 0.00 0.00 0.00 0.00 0.00 0.00 0.00
0.00 0.00 0.00 0.00 0.00 0.00 0.00 0.00 0.00 0.00 0.00 0.00 0.00 0.00 0.00 0.00 0.00 0.00 0.00 0.00 0.00 0.00
0.00 0.00 0.00 0.00 0.00 0.00 0.00 0.00 0.00 0.00 0.00 0.00 0.00 0.00 0.00 0.00 0.00 0.00 0.00 0.00 0.00 0.00
0.00 0.00 0.00 0.00 0.00 0.00 0.00 0.00 0.00 0.00 0.00 0.00 0.00 0.00 0.00 0.00 0.00 0.00 0.00 0.00 0.00 0.00
0.00 0.00 0.00 0.00 0.00 0.00 0.00 0.00 0.00 0.00 0.00 0.00 0.00 0.00 0.00 0.00 0.00 0.00 0.00 0.00 0.00 0.00
0.00 0.00 0.00 0.00 0.00 0.00 0.00 0.00 0.00 0.00 0.00 0.00 0.00 0.00 0.00 0.00 0.00 0.00 0.00 0.00 0.00 0.00
0.00 0.00 0.00 0.00 0.00 0.00 0.00 0.00 0.00 0.00 0.00 0.00 0.00 0.00 0.00 0.00 0.00 0.00 0.00 0.00 0.00 0.00
MSLP
1012.02 1012.31 1012.38 1012.77 1013.29 1013.85 1014.41 1014.50 1015.10 1015.51 1015.48 1015.96 1016.48 1016.64 1017.42 1018.03 1018.04 1018.07 1018.34 1019.04 1019.31 1019.11
1011.77 1012.12 1012.45 1012.86 1013.12 1013.52 1014.10 1014.23 1014.84 1015.45 1015.81 1016.02 1016.70 1016.83 1017.11 1017.89 1018.22 1018.29 1018.68 1018.97 1019.11 1019.08
1012.07 1012.13 1012.55 1013.00 1013.23 1013.26 1013.82 1014.28 1014.82 1015.51 1016.02 1016.42 1016.92 1016.99 1017.63 1018.04 1018.23 1018.42 1018.70 1018.97 1019.07 1019.02
1012.54 1012.80 1013.03 1013.05 1013.01 1013.33 1013.84 1014.39 1014.85 1015.39 1015.87 1016.50 1016.83 1017.10 1017.60 1018.30 1018.31 1018.39 1018.64 1018.91 1019.03 1019.09
1012.86 1013.04 1012.99 1012.81 1012.92 1013.35 1013.79 1014.37 1014.73 1015.31 1015.89 1016.53 1017.03 1017.22 1017.84 1018.31 1018.37 1018.46 1018.61 1019.03 1018.97 1018.82
1013.26 1012.96 1013.14 1013.25 1013.31 1013.57 1013.93 1014.33 1014.84 1015.37 1015.85 1016.36 1016.85 1017.32 1017.62 1018.00 1018.06 1018.47 1018.68 1018.67 1018.57 1018.51
1013.74 1013.54 1013.52 1013.56 1013.73 1013.80 1013.97 1014.23 1014.68 1015.34 1015.83 1016.22 1016.74 1017.08 1017.47 1017.61 1017.68 1018.10 1018.43 1018.83 1018.97 1018.99
1014.02 1014.18 1014.15 1014.21 1014.12 1014.14 1014.38 1014.66 1015.18 1015.77 1016.15 1016.43 1016.57 1016.95 1017.20 1017.48 1017.77 1017.97 1018.10 1018.45 1019.02 1019.35
1013.94 1014.03 1014.08 1014.22 1014.52 1014.91 1015.04 1015.08 1015.20 1015.59 1015.96 1016.26 1016.48 1017.06 1017.35 1017.42 1017.48 1018.11 1018.15 1018.08 1018.70 1019.47
1013.76 1013.86 1014.02 1014.20 1014.40 1014.68 1014.78 1015.09 1015.13 1015.53 1015.87 1016.29 1016.51 1016.91 1017.45 1017.81 1017.89 1017.96 1018.12 1018.13 1018.55 1019.14
1013.47 1013.73 1013.93 1014.24 1014.54 1014.88 1015.12 1015.41 1015.42 1015.66 1016.26 1016.51 1016.54 1016.89 1017.28 1017.60 1017.86 1018.16 1018.53 1018.53 1018.52 1018.82
1013.09 1013.30 1013.62 1013.93 1014.14 1014.57 1014.93 1015.60 1015.50 1015.72 1016.11 1016.10 1016.45 1016.84 1017.22 1017.62 1017.75 1017.92 1018.29 1018.08 1018.23 1018.82
1012.94 1012.83 1012.88 1013.06 1013.46 1014.12 1014.32 1015.12 1015.33 1015.60 1015.85 1016.20 1016.28 1016.64 1017.17 1017.44 1017.46 1017.23 1017.53 1018.03 1018.25 1018.65
1012.93 1012.75 1012.62 1012.65 1012.91 1013.48 1013.79 1014.29 1014.67 1014.93 1015.05 1015.43 1015.51 1015.72 1016.25 1016.71 1017.07 1017.10 1017.25 1017.70 1018.25 1018.38
Thickness
5636 5634 5635 5636 5634 5630 5627 5628 5623 5620 5620 5618 5613 5613 5608 5605 5607 5608 5606 5599 5595 5596
5634 5632 5631 5629 5630 5630 5625 5626 5621 5615 5613 5614 5607 5606 5606 5600 5598 5598 5594 5590 5588 5587
5625 5625 5623 5621 5622 5624 5621 5618 5615 5609 5604 5601 5597 5596 5591 5589 5588 5586 5582 5578 5576 5575
5612 5612 5612 5613 5616 5615 5612 5608 5606 5603 5598 5593 5590 5587 5583 5577 5576 5575 5571 5568 5564 5562
5602 5602 5605 5608 5609 5606 5603 5600 5599 5594 5590 5584 5579 5578 5572 5568 5566 5564 5561 5556 5556 5555
5591 5595 5594 5595 5595 5595 5593 5591 5588 5585 5582 5577 5572 5567 5564 5559 5557 5551 5548 5548 5547 5546
5579 5582 5583 5583 5583 5583 5582 5582 5579 5574 5571 5567 5561 5557 5551 5550 5549 5543 5539 5533 5531 5531
5567 5567 5566 5567 5567 5568 5567 5565 5561 5557 5554 5551 5550 5545 5542 5540 5537 5535 5534 5529 5521 5518
5558 5556 5554 5552 5549 5546 5545 5546 5546 5544 5541 5539 5538 5532 5530 5531 5531 5524 5522 5523 5517 5508
5543 5542 5540 5539 5538 5536 5536 5534 5534 5532 5529 5526 5525 5521 5517 5514 5514 5513 5510 5511 5508 5502
5529 5527 5526 5524 5521 5518 5517 5515 5515 5515 5510 5509 5511 5508 5505 5503 5501 5498 5495 5496 5497 5494
5518 5515 5512 5509 5508 5506 5504 5498 5500 5501 5498 5501 5499 5496 5493 5490 5490 5489 5485 5489 5487 5482
5504 5505 5504 5502 5499 5494 5494 5487 5488 5486 5485 5484 5485 5483 5479 5478 5479 5482 5481 5477 5474 5472
5487 5489 5490 5490 5489 5484 5483 5481 5479 5478 5478 5477 5478 5479 5476 5472 5470 5471 5471 5467 5462 5461